Погода в Медянке

Россия / Пермский край     56°58′24″N   56°57′29″E
темп.,
°C
ветер,
м/с
пор.,
м/с
влажн.,
%
обл.,
%
осадки,
мм/ч
давл.,
гПа
погр.,
м
21 января, пт
пт2123:00−11ююз61393100 0.1 1019373
02:00−11ююз61493100 0.1 1020405
05:00−12ююз6139499 0.1 1021347
08:00−12ююз5139494 0.0 1021295
11:00−13ююз5129497 0.1 1022317
14:00−11ююз51195100 0.0 1023326
17:00−12ююз489590 0.1 1024181
20:00−15ю389989 0.0 1025108
22 января, сб
сб2223:00−16ю3510083 0.1 102676
02:00−18ю2210074 0.0 102730
05:00−18ююв2210057 0.0 102720
08:00−18ююв229964 0.0 102813
11:00−14ююв249687 0.0 102867
14:00−8ю369359 0.0 1028233
17:00−9ююв119671 0.0 102910
20:00−11юв229698 0.0 103028
23 января, вс
вс2323:00−13юв2295100 0.0 103118
02:00−15юв2295100 0.0 103212
05:00−13юв2294100 0.0 103314
08:00−12юв2193100 0.0 103313
11:00−11юв2292100 0.0 103423
14:00−6юв2386100 0.0 1035113
17:00−7ююв1192100 0.0 103610
20:00−10ююв1195100 0.0 103710
24 января, пн
пн2423:00−10ююв1194100 0.0 103718
02:00−12ююз1195100 0.0 103910
05:00−11ю2294100 0.0 103917
08:00−9ююз2292100 0.0 103961
11:00−8ююз2488100 0.0 1039113
14:00−7юз3485100 0.0 1039192
17:00−7юз2491100 0.0 1038163
20:00−8юз3696100 0.6 1038217
25 января, вт
вт2523:00−8юз369696 1.4 1037208
02:00−11юз359792 0.3 103794
05:00−12юз369799 0.4 1036124
08:00−12юз3795100 0.1 1035138
11:00−12юз3791100 0.1 1034169
14:00−10юз4790100 0.0 1033228
17:00−11ююз4893100 0.0 1032197
20:00−13юз41094100 0.0 1032200